Regional Weather Roundup
Issued by NWS

Home | Current Version | Previous Version | Text Only | Print | Product List | Glossary Off
Versions: 1 2 3 4 5 6 7 8 9 10 11 12 13 14 15 16 17 18 19 20 21 22 23 24 25 26 27 28 29 30 31 32 33 34 35 36 37 38 39 40 41 42 43 44 45 46 47 48 49 50

000
ASUS45 KBOU 301710
RWRCO

WEATHER ROUNDUP FOR COLORADO
NATIONAL WEATHER SERVICE DENVER/BOULDER CO
1100 AM MDT FRI SEP 30 2016

NOTE: "FAIR" INDICATES FEW OR NO CLOUDS BELOW 12000 FEET WITH NO
SIGNIFICANT WEATHER AND/OR OBSTRUCTIONS TO VISIBILITY.

COZ001>005-013-030-031-301800-
...NORTHWEST COLORADO...

CITY           SKY/WX    TMP DP  RH WIND       PRES   REMARKS
CRAIG          CLOUDY    62  48  60 W8G23     30.35F
HAYDEN         CLOUDY    55  46  71 CALM      30.38S
MEEKER         FAIR      60  52  74 SW6       30.37F
MOUNT WERNER   NOT AVBL
STEAMBOAT SPGS CLOUDY    54  50  88 CALM      30.38F
WALDEN           N/A     50  43  76 SE5       30.44S
$$

COZ006>008-011-301800-
...WEST CENTRAL VALLEYS...

CITY           SKY/WX    TMP DP  RH WIND       PRES   REMARKS
GRAND JUNCTION CLOUDY    63  54  72 SW3       30.33S
MONTROSE       CLOUDY    62  52  69 N6        30.38F
EAGLE          PTSUNNY   57  52  82 CALM      30.41F
RIFLE          NOT AVBL
DELTA          CLOUDY    65  55  70 CALM      30.35S
NUCLA          CLOUDY    59  52  77 CALM      30.41F
$$

COZ017>023-064>068-301800-
...SOUTHWEST COLORADO...

CITY           SKY/WX    TMP DP  RH WIND       PRES   REMARKS
DURANGO        FAIR      61  47  59 E5        30.39F
CORTEZ         FAIR      63  50  62 VRB5      30.36F
PAGOSA SPRINGS FAIR      60  42  50 S6        30.43S
TELLURIDE      PTSUNNY   54  44  68 W6        30.51S
WOLF CREEK PAS PTSUNNY   41  37  87 SW12G20   30.65S
$$

COZ009-010-012-014-032>034-037-058>063-301800-
...CENTRAL COLORADO...

CITY           SKY/WX    TMP DP  RH WIND       PRES   REMARKS
ASPEN          PTSUNNY   55  47  74 NW5       30.43F
BUENA VISTA    FAIR      61  37  41 N9        30.38F
COPPER MTN     LGT RAIN  43  37  81 W6        30.62S VSB<1/4
BERTHOUD PASS  HAZE      34  23  64 N15G24    30.63S VSB<1/4 WCI  24
COTTONWOOD PAS PTSUNNY   55  36  47 SW13      30.50S
GUNNISON       CLOUDY    55  45  67 CALM      30.43F
KREMMLING      PTSUNNY   54  41  62 CALM      30.43F
LEADVILLE      PTSUNNY   50  37  61 NW12      30.50F
SALIDA         FAIR      69  38  32 SW12G17   30.43F
SUNLIGHT       CLOUDY    45  45 100 SW5       30.61S
WILKERSON PASS CLOUDY    48  32  53 CALM      30.60S
$$

COZ069>075-301800-
...SAN LUIS VALLEY/SANGRE DE CRISTO MOUNTAINS...

CITY           SKY/WX    TMP DP  RH WIND       PRES   REMARKS
ALAMOSA        FAIR      63  41  44 CALM      30.39F
LA VETA PASS   FAIR      54  41  62 MISG      30.51S
SAGUACHE       CLOUDY    57  39  51 NW3       30.43S
$$

COZ035-036-038>040-301800-
...NORTHERN COLORADO FRONT RANGE...

CITY           SKY/WX    TMP DP  RH WIND       PRES   REMARKS
DENVER INTL AP PTSUNNY   66  43  43 NE14      30.25S
DMNS CITY PARK   N/A     69  43  39 NE5G12    30.26S
AURORA         PTSUNNY   67  44  43 N12       30.27S
FRONT RANGE AP PTSUNNY   66  45  45 N14G20    30.26S
ERIE MUNI ARPT PTSUNNY   65  44  45 NE6       30.25S
BOULDER MUN AP CLOUDY    63  46  55 CALM      30.25R
CENTENNIAL     PTSUNNY   67  43  41 N10       30.28S
BROOMFIELD     CLOUDY    66  43  42 CALM      30.28S
FORT COLLINS   FAIR      57  50  77 CALM      30.25R
LONGMONT       CLOUDY    63  50  61 CALM      30.26S
$$

COZ041-046-047-076>085-087-088-301800-
...PIKES PEAK/PALMER DIVIDE AND SOUTHERN FOOTHILLS...

CITY           SKY/WX    TMP DP  RH WIND       PRES   REMARKS
COLO. SPRINGS  PTSUNNY   74  40  29 N21       30.27S
A. F. ACADEMY  FAIR      70  41  34 NE20G25   30.28S
SCHRIEVER AFB  NOT AVBL
ELLICOTT       NOT AVBL
FALCON         FAIR      68  39  34 N15G24    30.32R
FORT CARSON    FAIR      75  40  27 N15       30.23F
LIMON          FAIR      70  40  33 N8        30.22F
MONUMENT HILL  CLOUDY    63  41  45 N14G20    30.35S
TRINIDAD       FAIR      73  36  25 SE5       30.24F
$$

COZ042>045-048>051-090-091-301800-
...NORTHEAST COLORADO...

CITY           SKY/WX    TMP DP  RH WIND       PRES   REMARKS
GREELEY ARPT   FAIR      61  45  55 CALM      30.24S
AKRON          FAIR      64  42  44 VRB5      30.21S
BURLINGTON     FAIR      62  44  51 SE15      30.21F
WRAY           NOT AVBL
STERLING       FAIR      59  43  55 CALM      30.20F
HOLYOKE        FAIR      64  43  45 S10       30.21F
FORT MORGAN    FAIR      60  40  48 N5        30.23S
$$

COZ086-089-092>099-301800-
...SOUTHEAST COLORADO...

CITY           SKY/WX    TMP DP  RH WIND       PRES   REMARKS
PUEBLO         FAIR      68  43  40 NW3       30.18F
LA JUNTA       FAIR      64  43  46 N3        30.18F
LAMAR          FAIR      66  45  46 NW7       30.15F
SPRINGFIELD      N/A     74  46  36 S18       30.18F
$$



USA.gov is the U.S. government's official web portal to all federal, state and local government web resources and services.